Regional Weather Roundup
Issued by NWS Upton, NY

Current Version | Previous Version | Text Only | Print | Product List | Glossary On
Versions: 1 2 3 4 5 6 7 8 9 10 11 12 13 14 15 16 17 18 19 20 21 22 23 24 25 26 27
000
ASUS41 KOKX 280908
RWROKX

REGIONAL WEATHER ROUNDUP
NATIONAL WEATHER SERVICE NEW YORK NY
500 AM EDT SUN MAY 28 2017

NOTE: "FAIR" INDICATES FEW OR NO CLOUDS BELOW 12,000 FEET WITH NO
SIGNIFICANT WEATHER AND/OR OBSTRUCTIONS TO VISIBILITY.

NYZ071-072-176-178-NJZ106-104-281000-
NEW YORK CITY METRO AREA

CITY           SKY/WX    TMP DP  RH WIND       PRES   REMARKS
Central Park   CLOUDY    59  57  93 NE5       29.93R
Wall St Helipt PTSUNNY   60  57  89 NE8       29.92R
Bronx Bot Gard   N/A     57  54  88 E2        29.91R
LaGuardia APRT PTCLDY    59  56  89 E5        29.90R
Kennedy INTL   CLOUDY    59  58  96 CALM      29.92R
Breezy Point     N/A     57 N/A N/A E2          N/A
Newark/Liberty PTCLDY    59  57  93 CALM      29.90R
Teterboro      CLOUDY    59  56  89 CALM      29.90R
$$

NYZ177-179-078>081-281000-
LONG ISLAND NEW YORK

CITY           SKY/WX    TMP DP  RH WIND       PRES   REMARKS
Jones Beach      N/A     57 N/A N/A SE2         N/A
Matinecock PT  NOT AVBL
Farmingdale    CLEAR     57  55  93 CALM      29.91R
MacArthur/ISP  MOCLDY    57  56  96 S5        29.90S
Shirley        CLOUDY    57  57 100 S5        29.90F
Mt Sinai Harb    N/A    N/A N/A N/A S1          N/A
Westhampton    MOCLDY    56  52  86 SE5       29.91F
East Hampton   CLOUDY    55  53  92 SE5       29.90F
Montauk          N/A     56  54  93 S3        29.92F
$$

NYZ052-065-067-281000-
HUDSON VALLEY

CITY           SKY/WX    TMP DP  RH WIND       PRES   REMARKS
White Plains   MOCLDY    57  55  93 CALM      29.91R
Larchmont Harb   N/A     57 N/A N/A SE3         N/A
Croton O-T Hud   N/A     59 N/A N/A MISG        N/A
Newburgh       NOT AVBL
Montgomery     CLOUDY    58  57  97 CALM      29.89R
Poughkeepsie   CLOUDY    60  57  89 CALM      29.90R
Albany         CLOUDY    60  55  83 SW3       29.90R
$$

NJZ001-105-106-008-010-013-015-019>022-104-281000-
NEW JERSEY

CITY           SKY/WX    TMP DP  RH WIND       PRES   REMARKS
Newark/Liberty PTCLDY    59  57  93 CALM      29.90R
Teterboro      CLOUDY    59  56  89 CALM      29.90R
Caldwell       PTCLDY    58  54  86 CALM      29.91R
Somerville     CLEAR     52  51  97 CALM      29.88F FOG
Linden           N/A     58  55  91 CALM      29.90R
Perth Amboy      N/A     57 N/A N/A E2          N/A
Sussex         CLOUDY    58  58 100 CALM      29.90S
Andover          N/A     57  56  96 CALM      29.90R
Trenton        CLEAR     56  55  97 CALM      29.88S
Millville      FOG       61  61 100 CALM      29.88S VSB 3/4
Atlantic City  NOT AVBL
Wrightstown    CLEAR     56  55  95 CALM      29.87S
Toms River     PTCLDY    56  55  97 CALM      29.90R
Belmar         CLEAR     56  55  97 CALM      29.91R
$$

PAZ047>061-062-071-281000-
EASTERN PENNSYLVANIA

CITY           SKY/WX    TMP DP  RH WIND       PRES   REMARKS
Philadelphia   MOCLDY    63  60  90 W3        29.89S
Allentown      CLEAR     54  52  93 CALM      29.89F
Scranton       CLOUDY    61  56  83 E6        29.90R
$$

CTZ002-004>006-009-010-012-RIZ004-006-007-MAZ004-011-015-281000-
SOUTHERN NEW ENGLAND
 IN CT

CITY           SKY/WX    TMP DP  RH WIND       PRES   REMARKS
Bradley INTL   CLOUDY    57  53  86 SE3       29.90F
Hartford       CLOUDY    58  54  86 CALM      29.90F
Danbury        CLOUDY    56  55  97 CALM      29.93R
Wtrbury/Oxford   N/A     55  50  82 CALM      29.92R
Bridgeport     CLOUDY    60  56  86 CALM      29.90F
Meriden        CLOUDY    56  54  93 CALM      29.90F
New Haven      CLOUDY    57  54  89 CALM      29.90F
Chester        CLOUDY    55  54  94 CALM      29.90F
Groton         CLOUDY    56  52  86 SE5       29.90F
Wilimantic     CLOUDY    58  53  84 NE3       29.91F

 IN RI

CITY           SKY/WX    TMP DP  RH WIND       PRES   REMARKS
Providence     CLOUDY    55  55 100 S6        29.94R
Block Island   CLOUDY    55  52  89 S7        29.93F
Westerly       CLOUDY    57  54  89 SE6       29.92F
 IN MA

CITY           SKY/WX    TMP DP  RH WIND       PRES   REMARKS
Boston         MOCLDY    55  52  89 SW7       29.92S
Worcester      CLOUDY    55  52  89 W5        29.91S
Westfield      CLOUDY    57  55  93 CALM      29.89F
Provincetown   CLEAR     51  48  89 S6        29.94S
Nantucket      LGT RAIN  47  45  93 SE6       29.94R
$$

ANZ330-335-338-340-345-350-353-355-281000-
COASTAL MARINE OBSERVATIONS


STATION/POSITION TIME  SKY/WX   TEMP    WIND        PRES    VSBY  WAVE
                                AIR SEA DIR/SP/G                  HT/PER
                 (UTC)          (F)     (DEG/KT/KT) (MB)    (MI)  (FT/S)
NY HARB ENTRANCE 0750            58 58  160/  8/ 10 1012.0          2/ 8
20 S FIRE ISLAND 0850            57 57  140/ 10/ 10 1011.8          2/ 8
GREAT SOUTH BAY  NOT AVBL
23 SSW MONTAUK P 0750            55 55              1013.9          2/ 8
15 E BARNEGAT LI 0830               59                N/A           2/ 8
HUDSON CANYON    0750            57 57  140/  6/  6 1013.1          2/ 8
KINGS POINT      0836            58 59  180/  1/  3 1012.6
EXECUTION ROCKS  0845            59                   N/A
CENTRAL LI SOUND 0830            55      80/  4/  6   N/A           0
EASTERN LI SOUND NOT AVBL
ROBBINS REEF     0842            59     100/  4/  4 1013.1
$$


>>>>>>>>>>>>>>>>>>>>>>>>>>>> KEY <<<<<<<<<<<<<<<<<<<<<<<<<<<
>                                                          <
>     SKY/WX - Sky Condition/Present Weather               <
>     TMP    - Temperature in Fahrenheit                   <
>     DP     - Dew Point in Fahrenheit                     <
>     RH     - Relative Humidity in Percent                <
>     WIND   - Direction (from) and Speed in MPH           <
>     PRES   - Mean Sea Level Pressure (inches of Hg)      <
>     WCI    - Wind Chill Index                            <
>     VSB    - VISIBILITY IN MILES                         <
>     HX     - HEAT INDEX                                  <
>     TC     - TEMPERATURE IN CELSIUS                      <
>     VRB    - VARIABLE WIND DIRECTION                     <
>                                                          <
>>>>>>>>>>>>>>>>>>>>>>>>>>>> KEY <<<<<<<<<<<<<<<<<<<<<<<<<<<




USA.gov is the U.S. government's official web portal to all federal, state and local government web resources and services.